Weather Roundup
Issued by NWS Chicago, IL

Home | Current Version | Previous Version | Graphics & Text | Print | Product List | Glossary On
Versions: 1 2 3 4 5 6 7 8 9 10 11 12 13 14 15 16 17 18 19 20 21 22 23 24 25 26 27 28 29 30 31 32 33 34 35 36 37 38 39 40 41 42 43 44 45 46 47 48 49 50
000
NZUS59 KLOT 211800
HRRLOT

CHICAGO AREA WEATHER ROUNDUP
NATIONAL WEATHER SERVICE CHICAGO/ROMEOVILLE IL
1200 PM CST SUN DEC 21 2014

NOTE: "FAIR" INDICATES FEW OR NO CLOUDS BELOW 12,000 FEET WITH NO
SIGNIFICANT WEATHER AND/OR OBSTRUCTIONS TO VISIBILITY.

* THESE STATIONS ARE NOT UNDER NWS QUALITY CONTROL. THEY ALSO MAY NOT
  REPORT WEATHER SUCH AS PRECIPITATION OR FOG.

ILZ005-006-012>014-019>023-211900-
NORTHEAST ILLINOIS

CITY           SKY/WX    TMP DP  RH WIND       PRES   REMARKS
OHARE          CLOUDY    35  28  75 S13       30.14F WCI  26
6HR MIN TEMP:  32; 6HR MAX TEMP:  35;

MIDWAY         CLOUDY    36  28  73 S10       30.16F
6HR MIN TEMP:  34; 6HR MAX TEMP:  36;

AURORA         CLOUDY    36  29  75 S15       30.13F HAZE
6HR MIN TEMP:  33; 6HR MAX TEMP:  36;

WAUKEGAN       CLOUDY    35  28  75 S15       30.13F WCI  25
6HR MIN TEMP:  32; 6HR MAX TEMP:  35;

DUPAGE AIRPORT CLOUDY    35  29  78 S13       30.13F WCI  26
6HR MIN TEMP:  32; 6HR MAX TEMP:  35;

WHEELING       CLOUDY    35  28  75 S9        30.16F WCI  28
6HR MIN TEMP:  33; 6HR MAX TEMP:  35;

NORTHERLY IS     N/A     35  27  73 S12         N/A  WCI  27
$$

WIZ051-052-058>065-066-070>072-211900-
SOUTHEAST WISCONSIN

CITY           SKY/WX    TMP DP  RH WIND       PRES   REMARKS
MILWAUKEE      CLOUDY    36  29  75 S8        30.11F
6HR MIN TEMP:  32; 6HR MAX TEMP:  36; 6HR PCP: TRACE;

KENOSHA*       CLOUDY    36  29  75 S12       30.12F
RACINE*        CLOUDY    36  29  75 S10       30.14F
WAUKESHA       CLOUDY    32  30  93 S9        30.11F FOG     WCI  24
$$

INZ001>003-010>013-019-020-211900-
NORTHWEST INDIANA

CITY           SKY/WX    TMP DP  RH WIND       PRES   REMARKS
GARY*          CLOUDY    36  25  64 S12       30.19F
MICHIGAN CITY* NOT AVBL
RENSSELAER*    NOT AVBL
$$

LMZ740>746-211900-
SOUTHERN LAKE MICHIGAN

STATION/POSITION TIME  SKY/WX   TEMP WIND        PRES    VSBY
                                AIR  DIR/SP/G
                 (UTC)          (F)  (DEG/KT/KT) (MB)    (MI)
HARRISON CRIB    1700            33  180/ 17/ 20   N/A
BURNHAM HARBOR   1800            35  200/  9/ 12   N/A
CALUMET HARBOR   1700            34  170/ 10/ 15 1020.8F
BURNS HARBOR     NOT AVBL
MICHIGAN CITY    NOT AVBL
$$

ABBREVIATIONS USED IN REMARKS
   TC - TEMPERATURE IN CELSIUS
  WCI - WIND CHILL INDEX
   HX - HEAT INDEX
  VSB - VISIBILITY
$$


USA.gov is the U.S. government's official web portal to all federal, state and local government web resources and services.